Tracking 29892 objects as of 21-Nov-2024
HD Live streaming from Space Station
objects crossing your sky now

FENGYUN 1C DEB

Track FENGYUN 1C DEB now!
10-day predictions


NORAD ID: 30224
Int'l Code: 1999-025WH
Perigee: 856.4 km
Apogee: 1,019.5 km
Inclination: 99.5 °
Period: 103.6 minutes
Semi major axis: 7308 km
RCS: 0.0474 m2 (small)
Launch date: May 10, 1999
Source: People's Republic of China (PRC)
Launch site: Taiyaun Space Center, China (TSC)

Note: This is SATELLITE DEBRIS
Your satellite tracking list
Your tracking list is empty




NASA's NSSDC Master Catalog

Two Line Element Set (TLE):
1 30224U 99025WH  24325.02993292  .00000727  00000-0  60449-3 0  9990
2 30224  99.5263 349.6494 0111580 299.5089  88.4783 13.89382404903567
Source of the keplerian elements: AFSPC